Today
| Time | Wind Dr | Wind Spd mph |
Wind Gust mph |
Hum In % |
Humid % |
TempI F |
Temp F |
Raw Bar in |
Tot Rain in |
UV | Solar W/sqm |
DailyRain in |
HourRain in |
24HrRain in |
RainRate in |
|---|---|---|---|---|---|---|---|---|---|---|---|---|---|---|---|
| 05/07/26 12:01:30 AM | 37 | 0.0 | 0.0 | 53 | 75 | 69.4 | 59.0 | 30.065 | 7.26 | 0.0 | 0 | 0.00 | 0.00 | 0.00 | 0.00 |
| 05/07/26 12:02:22 AM | 38 | 0.0 | 0.0 | 53 | 75 | 69.4 | 59.0 | 30.065 | 7.26 | 0.0 | 0 | 0.00 | 0.00 | 0.00 | 0.00 |
| 05/07/26 12:03:28 AM | 34 | 0.0 | 0.0 | 53 | 75 | 69.4 | 58.9 | 30.064 | 7.26 | 0.0 | 0 | 0.00 | 0.00 | 0.00 | 0.00 |
| 05/07/26 12:04:22 AM | 36 | 0.0 | 0.0 | 53 | 75 | 69.4 | 58.9 | 30.063 | 7.26 | 0.0 | 0 | 0.00 | 0.00 | 0.00 | 0.00 |
| 05/07/26 12:05:32 AM | 36 | 0.0 | 0.0 | 53 | 75 | 69.4 | 58.9 | 30.063 | 7.26 | 0.0 | 0 | 0.00 | 0.00 | 0.00 | 0.00 |
| 05/07/26 12:06:26 AM | 38 | 0.0 | 0.0 | 53 | 75 | 69.4 | 58.9 | 30.065 | 7.26 | 0.0 | 0 | 0.00 | 0.00 | 0.00 | 0.00 |
| 05/07/26 12:07:18 AM | 32 | 0.0 | 0.0 | 53 | 75 | 69.4 | 58.8 | 30.062 | 7.26 | 0.0 | 0 | 0.00 | 0.00 | 0.00 | 0.00 |
| 05/07/26 12:08:24 AM | 35 | 0.0 | 0.0 | 53 | 76 | 69.4 | 58.8 | 30.060 | 7.26 | 0.0 | 0 | 0.00 | 0.00 | 0.00 | 0.00 |
| 05/07/26 12:09:16 AM | 37 | 0.0 | 0.0 | 53 | 76 | 69.4 | 58.8 | 30.062 | 7.26 | 0.0 | 0 | 0.00 | 0.00 | 0.00 | 0.00 |
| 05/07/26 12:10:29 AM | 32 | 0.0 | 0.0 | 53 | 76 | 69.4 | 58.8 | 30.062 | 7.26 | 0.0 | 0 | 0.00 | 0.00 | 0.00 | 0.00 |
| 05/07/26 12:11:20 AM | 31 | 0.0 | 0.0 | 53 | 76 | 69.4 | 58.8 | 30.064 | 7.26 | 0.0 | 0 | 0.00 | 0.00 | 0.00 | 0.00 |
| 05/07/26 12:12:33 AM | 31 | 0.0 | 0.0 | 53 | 76 | 69.4 | 58.8 | 30.063 | 7.26 | 0.0 | 0 | 0.00 | 0.00 | 0.00 | 0.00 |
| 05/07/26 12:13:22 AM | 36 | 0.0 | 0.0 | 53 | 76 | 69.4 | 58.7 | 30.063 | 7.26 | 0.0 | 0 | 0.00 | 0.00 | 0.00 | 0.00 |
| 05/07/26 12:14:35 AM | 37 | 0.0 | 0.0 | 53 | 76 | 69.4 | 58.7 | 30.061 | 7.26 | 0.0 | 0 | 0.00 | 0.00 | 0.00 | 0.00 |
| 05/07/26 12:15:48 AM | 36 | 0.0 | 0.0 | 53 | 76 | 69.4 | 58.7 | 30.062 | 7.26 | 0.0 | 0 | 0.00 | 0.00 | 0.00 | 0.00 |
| 05/07/26 12:16:18 AM | 36 | 0.0 | 0.0 | 53 | 76 | 69.4 | 58.7 | 30.059 | 7.26 | 0.0 | 0 | 0.00 | 0.00 | 0.00 | 0.00 |
| 05/07/26 12:17:31 AM | 36 | 0.0 | 0.0 | 53 | 76 | 69.4 | 58.7 | 30.058 | 7.26 | 0.0 | 0 | 0.00 | 0.00 | 0.00 | 0.00 |
| 05/07/26 12:18:23 AM | 38 | 0.0 | 0.0 | 53 | 76 | 69.4 | 58.7 | 30.059 | 7.26 | 0.0 | 0 | 0.00 | 0.00 | 0.00 | 0.00 |
| 05/07/26 12:19:30 AM | 38 | 0.0 | 0.0 | 53 | 76 | 69.4 | 58.7 | 30.058 | 7.26 | 0.0 | 0 | 0.00 | 0.00 | 0.00 | 0.00 |
| 05/07/26 12:20:22 AM | 34 | 0.0 | 0.0 | 53 | 76 | 69.4 | 58.7 | 30.059 | 7.26 | 0.0 | 0 | 0.00 | 0.00 | 0.00 | 0.00 |
| 05/07/26 12:21:34 AM | 36 | 0.0 | 0.0 | 53 | 76 | 69.4 | 58.6 | 30.059 | 7.26 | 0.0 | 0 | 0.00 | 0.00 | 0.00 | 0.00 |
| 05/07/26 12:22:26 AM | 36 | 0.0 | 0.0 | 53 | 76 | 69.4 | 58.6 | 30.059 | 7.26 | 0.0 | 0 | 0.00 | 0.00 | 0.00 | 0.00 |
| 05/07/26 12:23:18 AM | 30 | 0.0 | 0.0 | 53 | 76 | 69.4 | 58.6 | 30.058 | 7.26 | 0.0 | 0 | 0.00 | 0.00 | 0.00 | 0.00 |
| 05/07/26 12:24:25 AM | 36 | 0.0 | 0.0 | 53 | 76 | 69.4 | 58.6 | 30.056 | 7.26 | 0.0 | 0 | 0.00 | 0.00 | 0.00 | 0.00 |
| 05/07/26 12:25:16 AM | 34 | 0.0 | 0.0 | 53 | 76 | 69.4 | 58.6 | 30.058 | 7.26 | 0.0 | 0 | 0.00 | 0.00 | 0.00 | 0.00 |
| 05/07/26 12:26:32 AM | 37 | 0.0 | 0.0 | 53 | 76 | 69.4 | 58.6 | 30.058 | 7.26 | 0.0 | 0 | 0.00 | 0.00 | 0.00 | 0.00 |
| 05/07/26 12:27:24 AM | 34 | 0.0 | 0.0 | 53 | 76 | 69.4 | 58.6 | 30.056 | 7.26 | 0.0 | 0 | 0.00 | 0.00 | 0.00 | 0.00 |
| 05/07/26 12:28:37 AM | 37 | 0.0 | 0.0 | 53 | 76 | 69.4 | 58.6 | 30.059 | 7.26 | 0.0 | 0 | 0.00 | 0.00 | 0.00 | 0.00 |
| 05/07/26 12:29:29 AM | 36 | 0.0 | 0.0 | 53 | 76 | 69.4 | 58.6 | 30.056 | 7.26 | 0.0 | 0 | 0.00 | 0.00 | 0.00 | 0.00 |
| 05/07/26 12:30:39 AM | 34 | 0.0 | 0.0 | 53 | 76 | 69.4 | 58.6 | 30.058 | 7.26 | 0.0 | 0 | 0.00 | 0.00 | 0.00 | 0.00 |
| 05/07/26 12:31:27 AM | 39 | 0.0 | 0.0 | 53 | 76 | 69.3 | 58.5 | 30.058 | 7.26 | 0.0 | 0 | 0.00 | 0.00 | 0.00 | 0.00 |
| 05/07/26 12:32:19 AM | 32 | 0.0 | 0.0 | 53 | 76 | 69.4 | 58.5 | 30.056 | 7.26 | 0.0 | 0 | 0.00 | 0.00 | 0.00 | 0.00 |
| 05/07/26 12:33:32 AM | 38 | 0.0 | 0.0 | 53 | 77 | 69.4 | 58.5 | 30.059 | 7.26 | 0.0 | 0 | 0.00 | 0.00 | 0.00 | 0.00 |
| 05/07/26 12:34:24 AM | 31 | 0.0 | 0.0 | 53 | 77 | 69.4 | 58.5 | 30.057 | 7.26 | 0.0 | 0 | 0.00 | 0.00 | 0.00 | 0.00 |
| 05/07/26 12:35:31 AM | 35 | 0.0 | 0.0 | 53 | 77 | 69.4 | 58.5 | 30.057 | 7.26 | 0.0 | 0 | 0.00 | 0.00 | 0.00 | 0.00 |
| 05/07/26 12:36:25 AM | 36 | 0.0 | 0.0 | 53 | 77 | 69.4 | 58.4 | 30.058 | 7.26 | 0.0 | 0 | 0.00 | 0.00 | 0.00 | 0.00 |
| 05/07/26 12:37:35 AM | 38 | 0.0 | 0.0 | 53 | 77 | 69.4 | 58.4 | 30.057 | 7.26 | 0.0 | 0 | 0.00 | 0.00 | 0.00 | 0.00 |
| 05/07/26 12:38:27 AM | 36 | 0.0 | 0.0 | 53 | 77 | 69.4 | 58.4 | 30.058 | 7.26 | 0.0 | 0 | 0.00 | 0.00 | 0.00 | 0.00 |
| 05/07/26 12:39:19 AM | 38 | 0.0 | 0.0 | 53 | 77 | 69.3 | 58.3 | 30.056 | 7.26 | 0.0 | 0 | 0.00 | 0.00 | 0.00 | 0.00 |
| 05/07/26 12:40:29 AM | 38 | 0.0 | 0.0 | 53 | 77 | 69.4 | 58.3 | 30.056 | 7.26 | 0.0 | 0 | 0.00 | 0.00 | 0.00 | 0.00 |
| 05/07/26 12:41:20 AM | 38 | 0.0 | 0.0 | 53 | 77 | 69.3 | 58.2 | 30.056 | 7.26 | 0.0 | 0 | 0.00 | 0.00 | 0.00 | 0.00 |
| 05/07/26 12:42:33 AM | 37 | 0.0 | 0.0 | 53 | 77 | 69.3 | 58.2 | 30.057 | 7.26 | 0.0 | 0 | 0.00 | 0.00 | 0.00 | 0.00 |
| 05/07/26 12:43:22 AM | 32 | 0.0 | 0.0 | 53 | 77 | 69.4 | 58.2 | 30.057 | 7.26 | 0.0 | 0 | 0.00 | 0.00 | 0.00 | 0.00 |
| 05/07/26 12:44:17 AM | 34 | 0.0 | 0.0 | 53 | 77 | 69.4 | 58.1 | 30.058 | 7.26 | 0.0 | 0 | 0.00 | 0.00 | 0.00 | 0.00 |
| 05/07/26 12:45:30 AM | 37 | 0.0 | 0.0 | 53 | 77 | 69.3 | 58.1 | 30.056 | 7.26 | 0.0 | 0 | 0.00 | 0.00 | 0.00 | 0.00 |
| 05/07/26 12:46:36 AM | 38 | 0.0 | 0.0 | 53 | 77 | 69.3 | 58.1 | 30.056 | 7.26 | 0.0 | 0 | 0.00 | 0.00 | 0.00 | 0.00 |
| 05/07/26 12:47:28 AM | 35 | 0.0 | 0.0 | 53 | 77 | 69.4 | 58.1 | 30.056 | 7.26 | 0.0 | 0 | 0.00 | 0.00 | 0.00 | 0.00 |
| 05/07/26 12:48:20 AM | 37 | 0.0 | 0.0 | 53 | 77 | 69.3 | 58.0 | 30.055 | 7.26 | 0.0 | 0 | 0.00 | 0.00 | 0.00 | 0.00 |
| 05/07/26 12:49:33 AM | 37 | 0.0 | 0.0 | 53 | 77 | 69.3 | 58.0 | 30.053 | 7.26 | 0.0 | 0 | 0.00 | 0.00 | 0.00 | 0.00 |
| 05/07/26 12:50:25 AM | 37 | 0.0 | 0.0 | 53 | 77 | 69.3 | 58.0 | 30.055 | 7.26 | 0.0 | 0 | 0.00 | 0.00 | 0.00 | 0.00 |
| 05/07/26 12:51:32 AM | 34 | 0.0 | 0.0 | 53 | 77 | 69.4 | 58.0 | 30.057 | 7.26 | 0.0 | 0 | 0.00 | 0.00 | 0.00 | 0.00 |
| 05/07/26 12:52:26 AM | 35 | 0.0 | 0.0 | 53 | 77 | 69.3 | 57.9 | 30.054 | 7.26 | 0.0 | 0 | 0.00 | 0.00 | 0.00 | 0.00 |
| 05/07/26 12:53:18 AM | 38 | 0.0 | 0.0 | 53 | 77 | 69.4 | 57.9 | 30.054 | 7.26 | 0.0 | 0 | 0.00 | 0.00 | 0.00 | 0.00 |
| 05/07/26 12:54:31 AM | 34 | 0.0 | 0.0 | 53 | 77 | 69.3 | 57.9 | 30.055 | 7.26 | 0.0 | 0 | 0.00 | 0.00 | 0.00 | 0.00 |
| 05/07/26 12:55:23 AM | 34 | 0.0 | 0.0 | 53 | 77 | 69.3 | 57.8 | 30.054 | 7.26 | 0.0 | 0 | 0.00 | 0.00 | 0.00 | 0.00 |
| 05/07/26 12:56:33 AM | 36 | 0.0 | 0.0 | 53 | 77 | 69.4 | 57.8 | 30.056 | 7.26 | 0.0 | 0 | 0.00 | 0.00 | 0.00 | 0.00 |
| 05/07/26 12:57:24 AM | 34 | 0.0 | 0.0 | 53 | 78 | 69.3 | 57.7 | 30.053 | 7.26 | 0.0 | 0 | 0.00 | 0.00 | 0.00 | 0.00 |
| 05/07/26 12:58:34 AM | 34 | 0.0 | 0.0 | 53 | 78 | 69.4 | 57.7 | 30.057 | 7.26 | 0.0 | 0 | 0.00 | 0.00 | 0.00 | 0.00 |
| 05/07/26 12:59:26 AM | 36 | 0.0 | 0.0 | 53 | 78 | 69.3 | 57.7 | 30.056 | 7.26 | 0.0 | 0 | 0.00 | 0.00 | 0.00 | 0.00 |
| 05/07/26 1:00:21 AM | 37 | 0.0 | 0.0 | 53 | 78 | 69.3 | 57.7 | 30.056 | 7.26 | 0.0 | 0 | 0.00 | 0.00 | 0.00 | 0.00 |
| 05/07/26 1:01:34 AM | 37 | 0.0 | 0.0 | 53 | 78 | 69.3 | 57.7 | 30.054 | 7.26 | 0.0 | 0 | 0.00 | 0.00 | 0.00 | 0.00 |
| 05/07/26 1:02:20 AM | 34 | 0.0 | 0.0 | 53 | 78 | 69.3 | 57.7 | 30.055 | 7.26 | 0.0 | 0 | 0.00 | 0.00 | 0.00 | 0.00 |
| 05/07/26 1:03:32 AM | 35 | 0.0 | 0.0 | 53 | 78 | 69.3 | 57.6 | 30.053 | 7.26 | 0.0 | 0 | 0.00 | 0.00 | 0.00 | 0.00 |
| 05/07/26 1:04:24 AM | 36 | 0.0 | 0.0 | 53 | 78 | 69.4 | 57.6 | 30.054 | 7.26 | 0.0 | 0 | 0.00 | 0.00 | 0.00 | 0.00 |
| 05/07/26 1:05:16 AM | 37 | 0.0 | 0.0 | 53 | 78 | 69.3 | 57.6 | 30.056 | 7.26 | 0.0 | 0 | 0.00 | 0.00 | 0.00 | 0.00 |
| 05/07/26 1:06:29 AM | 34 | 0.0 | 0.0 | 53 | 78 | 69.3 | 57.5 | 30.055 | 7.26 | 0.0 | 0 | 0.00 | 0.00 | 0.00 | 0.00 |
| 05/07/26 1:07:18 AM | 32 | 0.0 | 0.0 | 53 | 78 | 69.3 | 57.5 | 30.054 | 7.26 | 0.0 | 0 | 0.00 | 0.00 | 0.00 | 0.00 |
| 05/07/26 1:08:31 AM | 36 | 0.0 | 0.0 | 53 | 78 | 69.3 | 57.5 | 30.056 | 7.26 | 0.0 | 0 | 0.00 | 0.00 | 0.00 | 0.00 |
| 05/07/26 1:09:22 AM | 34 | 0.0 | 0.0 | 53 | 78 | 69.3 | 57.5 | 30.054 | 7.26 | 0.0 | 0 | 0.00 | 0.00 | 0.00 | 0.00 |
| 05/07/26 1:10:32 AM | 34 | 0.0 | 0.0 | 53 | 78 | 69.3 | 57.4 | 30.055 | 7.26 | 0.0 | 0 | 0.00 | 0.00 | 0.00 | 0.00 |
| 05/07/26 1:11:24 AM | 35 | 0.0 | 0.0 | 53 | 78 | 69.3 | 57.4 | 30.055 | 7.26 | 0.0 | 0 | 0.00 | 0.00 | 0.00 | 0.00 |
| 05/07/26 1:12:19 AM | 37 | 0.0 | 0.0 | 53 | 78 | 69.3 | 57.4 | 30.055 | 7.26 | 0.0 | 0 | 0.00 | 0.00 | 0.00 | 0.00 |
| 05/07/26 1:13:26 AM | 38 | 0.0 | 0.0 | 53 | 78 | 69.3 | 57.3 | 30.055 | 7.26 | 0.0 | 0 | 0.00 | 0.00 | 0.00 | 0.00 |
| 05/07/26 1:14:18 AM | 36 | 0.0 | 0.0 | 53 | 78 | 69.3 | 57.3 | 30.055 | 7.26 | 0.0 | 0 | 0.00 | 0.00 | 0.00 | 0.00 |
| 05/07/26 1:15:30 AM | 34 | 0.0 | 0.0 | 53 | 78 | 69.2 | 57.3 | 30.055 | 7.26 | 0.0 | 0 | 0.00 | 0.00 | 0.00 | 0.00 |
| 05/07/26 1:16:22 AM | 36 | 0.0 | 0.0 | 53 | 78 | 69.3 | 57.3 | 30.056 | 7.26 | 0.0 | 0 | 0.00 | 0.00 | 0.00 | 0.00 |
| 05/07/26 1:17:35 AM | 38 | 0.0 | 0.0 | 53 | 78 | 69.3 | 57.3 | 30.055 | 7.26 | 0.0 | 0 | 0.00 | 0.00 | 0.00 | 0.00 |
| 05/07/26 1:18:21 AM | 34 | 0.0 | 0.0 | 53 | 78 | 69.3 | 57.2 | 30.056 | 7.26 | 0.0 | 0 | 0.00 | 0.00 | 0.00 | 0.00 |
| 05/07/26 1:19:34 AM | 31 | 0.0 | 0.0 | 53 | 78 | 69.2 | 57.2 | 30.055 | 7.26 | 0.0 | 0 | 0.00 | 0.00 | 0.00 | 0.00 |
| 05/07/26 1:20:29 AM | 36 | 0.0 | 0.0 | 53 | 78 | 69.2 | 57.2 | 30.055 | 7.26 | 0.0 | 0 | 0.00 | 0.00 | 0.00 | 0.00 |
| 05/07/26 1:21:20 AM | 37 | 0.0 | 0.0 | 53 | 78 | 69.3 | 57.2 | 30.054 | 7.26 | 0.0 | 0 | 0.00 | 0.00 | 0.00 | 0.00 |
| 05/07/26 1:22:33 AM | 32 | 0.0 | 0.0 | 53 | 78 | 69.3 | 57.1 | 30.055 | 7.26 | 0.0 | 0 | 0.00 | 0.00 | 0.00 | 0.00 |
| 05/07/26 1:23:19 AM | 38 | 0.0 | 0.0 | 53 | 78 | 69.2 | 57.1 | 30.055 | 7.26 | 0.0 | 0 | 0.00 | 0.00 | 0.00 | 0.00 |
| 05/07/26 1:24:32 AM | 38 | 0.0 | 0.0 | 53 | 78 | 69.3 | 57.1 | 30.056 | 7.26 | 0.0 | 0 | 0.00 | 0.00 | 0.00 | 0.00 |
| 05/07/26 1:25:27 AM | 37 | 0.0 | 0.0 | 53 | 78 | 69.2 | 57.0 | 30.055 | 7.26 | 0.0 | 0 | 0.00 | 0.00 | 0.00 | 0.00 |
| 05/07/26 1:26:19 AM | 36 | 0.0 | 0.0 | 53 | 79 | 69.3 | 57.0 | 30.054 | 7.26 | 0.0 | 0 | 0.00 | 0.00 | 0.00 | 0.00 |
| 05/07/26 1:27:35 AM | 34 | 0.0 | 0.0 | 53 | 79 | 69.3 | 57.0 | 30.053 | 7.26 | 0.0 | 0 | 0.00 | 0.00 | 0.00 | 0.00 |
| 05/07/26 1:28:26 AM | 38 | 0.0 | 0.0 | 53 | 79 | 69.2 | 56.9 | 30.053 | 7.26 | 0.0 | 0 | 0.00 | 0.00 | 0.00 | 0.00 |
| 05/07/26 1:29:33 AM | 36 | 0.0 | 0.0 | 53 | 79 | 69.2 | 56.9 | 30.054 | 7.26 | 0.0 | 0 | 0.00 | 0.00 | 0.00 | 0.00 |
| 05/07/26 1:30:28 AM | 36 | 0.0 | 0.0 | 53 | 79 | 69.2 | 56.9 | 30.054 | 7.26 | 0.0 | 0 | 0.00 | 0.00 | 0.00 | 0.00 |
| 05/07/26 1:31:17 AM | 37 | 0.0 | 0.0 | 53 | 79 | 69.3 | 56.9 | 30.051 | 7.26 | 0.0 | 0 | 0.00 | 0.00 | 0.00 | 0.00 |
| 05/07/26 1:32:30 AM | 37 | 0.0 | 0.0 | 53 | 79 | 69.2 | 56.8 | 30.052 | 7.26 | 0.0 | 0 | 0.00 | 0.00 | 0.00 | 0.00 |
| 05/07/26 1:33:22 AM | 38 | 0.0 | 0.0 | 53 | 79 | 69.2 | 56.8 | 30.054 | 7.26 | 0.0 | 0 | 0.00 | 0.00 | 0.00 | 0.00 |
| 05/07/26 1:34:31 AM | 32 | 0.0 | 0.0 | 53 | 79 | 69.3 | 56.8 | 30.052 | 7.26 | 0.0 | 0 | 0.00 | 0.00 | 0.00 | 0.00 |
| 05/07/26 1:35:23 AM | 38 | 0.0 | 0.0 | 53 | 79 | 69.2 | 56.7 | 30.054 | 7.26 | 0.0 | 0 | 0.00 | 0.00 | 0.00 | 0.00 |
| 05/07/26 1:36:33 AM | 35 | 0.0 | 0.0 | 53 | 79 | 69.2 | 56.7 | 30.054 | 7.26 | 0.0 | 0 | 0.00 | 0.00 | 0.00 | 0.00 |
| 05/07/26 1:37:25 AM | 29 | 0.0 | 0.0 | 53 | 79 | 69.2 | 56.7 | 30.054 | 7.26 | 0.0 | 0 | 0.00 | 0.00 | 0.00 | 0.00 |
| 05/07/26 1:38:17 AM | 36 | 0.0 | 0.0 | 53 | 79 | 69.2 | 56.6 | 30.054 | 7.26 | 0.0 | 0 | 0.00 | 0.00 | 0.00 | 0.00 |
| 05/07/26 1:39:24 AM | 34 | 0.0 | 0.0 | 53 | 79 | 69.2 | 56.6 | 30.052 | 7.26 | 0.0 | 0 | 0.00 | 0.00 | 0.00 | 0.00 |
| 05/07/26 1:40:15 AM | 34 | 0.0 | 0.0 | 53 | 79 | 69.2 | 56.6 | 30.053 | 7.26 | 0.0 | 0 | 0.00 | 0.00 | 0.00 | 0.00 |
| 05/07/26 1:41:28 AM | 38 | 0.0 | 0.0 | 53 | 80 | 69.2 | 56.6 | 30.053 | 7.26 | 0.0 | 0 | 0.00 | 0.00 | 0.00 | 0.00 |
| 05/07/26 1:42:20 AM | 34 | 0.0 | 0.0 | 53 | 80 | 69.2 | 56.6 | 30.054 | 7.26 | 0.0 | 0 | 0.00 | 0.00 | 0.00 | 0.00 |
| 05/07/26 1:43:30 AM | 36 | 0.0 | 0.0 | 53 | 80 | 69.2 | 56.5 | 30.052 | 7.26 | 0.0 | 0 | 0.00 | 0.00 | 0.00 | 0.00 |
| 05/07/26 1:44:25 AM | 32 | 0.0 | 0.0 | 53 | 80 | 69.2 | 56.5 | 30.052 | 7.26 | 0.0 | 0 | 0.00 | 0.00 | 0.00 | 0.00 |
| 05/07/26 1:45:32 AM | 36 | 0.0 | 0.0 | 53 | 80 | 69.2 | 56.5 | 30.054 | 7.26 | 0.0 | 0 | 0.00 | 0.00 | 0.00 | 0.00 |
| 05/07/26 1:46:23 AM | 34 | 0.0 | 0.0 | 53 | 80 | 69.1 | 56.5 | 30.053 | 7.26 | 0.0 | 0 | 0.00 | 0.00 | 0.00 | 0.00 |
| 05/07/26 1:47:36 AM | 34 | 0.0 | 0.0 | 53 | 80 | 69.2 | 56.5 | 30.053 | 7.26 | 0.0 | 0 | 0.00 | 0.00 | 0.00 | 0.00 |
| 05/07/26 1:48:25 AM | 38 | 0.0 | 0.0 | 53 | 80 | 69.1 | 56.4 | 30.052 | 7.26 | 0.0 | 0 | 0.00 | 0.00 | 0.00 | 0.00 |
| 05/07/26 1:49:17 AM | 37 | 0.0 | 0.0 | 53 | 80 | 69.1 | 56.4 | 30.051 | 7.26 | 0.0 | 0 | 0.00 | 0.00 | 0.00 | 0.00 |
| 05/07/26 1:50:27 AM | 37 | 0.0 | 0.0 | 53 | 80 | 69.1 | 56.4 | 30.053 | 7.26 | 0.0 | 0 | 0.00 | 0.00 | 0.00 | 0.00 |
| 05/07/26 1:51:19 AM | 34 | 0.0 | 0.0 | 53 | 80 | 69.2 | 56.4 | 30.050 | 7.26 | 0.0 | 0 | 0.00 | 0.00 | 0.00 | 0.00 |
| 05/07/26 1:52:28 AM | 32 | 0.0 | 0.0 | 53 | 80 | 69.2 | 56.4 | 30.052 | 7.26 | 0.0 | 0 | 0.00 | 0.00 | 0.00 | 0.00 |
| 05/07/26 1:53:23 AM | 38 | 0.0 | 0.0 | 53 | 80 | 69.2 | 56.4 | 30.051 | 7.26 | 0.0 | 0 | 0.00 | 0.00 | 0.00 | 0.00 |
| 05/07/26 1:54:33 AM | 38 | 0.0 | 0.0 | 53 | 80 | 69.2 | 56.3 | 30.053 | 7.26 | 0.0 | 0 | 0.00 | 0.00 | 0.00 | 0.00 |
| 05/07/26 1:55:22 AM | 30 | 0.0 | 0.0 | 53 | 80 | 69.2 | 56.3 | 30.052 | 7.26 | 0.0 | 0 | 0.00 | 0.00 | 0.00 | 0.00 |
| 05/07/26 1:56:32 AM | 30 | 0.0 | 0.0 | 53 | 80 | 69.1 | 56.2 | 30.050 | 7.26 | 0.0 | 0 | 0.00 | 0.00 | 0.00 | 0.00 |
| 05/07/26 1:57:27 AM | 37 | 0.0 | 0.0 | 53 | 80 | 69.1 | 56.2 | 30.051 | 7.26 | 0.0 | 0 | 0.00 | 0.00 | 0.00 | 0.00 |
| 05/07/26 1:58:18 AM | 38 | 0.0 | 0.0 | 53 | 80 | 69.1 | 56.2 | 30.049 | 7.26 | 0.0 | 0 | 0.00 | 0.00 | 0.00 | 0.00 |
| 05/07/26 1:59:31 AM | 34 | 0.0 | 0.0 | 53 | 80 | 69.2 | 56.2 | 30.050 | 7.26 | 0.0 | 0 | 0.00 | 0.00 | 0.00 | 0.00 |
| 05/07/26 2:00:47 AM | 36 | 0.0 | 0.0 | 53 | 80 | 69.1 | 56.1 | 30.051 | 7.26 | 0.0 | 0 | 0.00 | 0.00 | 0.00 | 0.00 |
| 05/07/26 2:01:33 AM | 38 | 0.0 | 0.0 | 53 | 80 | 69.1 | 56.2 | 30.049 | 7.26 | 0.0 | 0 | 0.00 | 0.00 | 0.00 | 0.00 |
| 05/07/26 2:02:25 AM | 38 | 0.0 | 0.0 | 53 | 80 | 69.1 | 56.2 | 30.046 | 7.26 | 0.0 | 0 | 0.00 | 0.00 | 0.00 | 0.00 |
| 05/07/26 2:03:17 AM | 35 | 0.0 | 0.0 | 53 | 81 | 69.1 | 56.1 | 30.048 | 7.26 | 0.0 | 0 | 0.00 | 0.00 | 0.00 | 0.00 |
| 05/07/26 2:04:29 AM | 37 | 0.0 | 0.0 | 53 | 81 | 69.1 | 56.1 | 30.044 | 7.26 | 0.0 | 0 | 0.00 | 0.00 | 0.00 | 0.00 |
| 05/07/26 2:05:21 AM | 38 | 0.0 | 0.0 | 53 | 81 | 69.1 | 56.1 | 30.047 | 7.26 | 0.0 | 0 | 0.00 | 0.00 | 0.00 | 0.00 |
| 05/07/26 2:06:28 AM | 38 | 0.0 | 0.0 | 53 | 81 | 69.1 | 56.2 | 30.047 | 7.26 | 0.0 | 0 | 0.00 | 0.00 | 0.00 | 0.00 |
| 05/07/26 2:07:20 AM | 38 | 0.0 | 0.0 | 53 | 81 | 69.1 | 56.1 | 30.047 | 7.26 | 0.0 | 0 | 0.00 | 0.00 | 0.00 | 0.00 |
| 05/07/26 2:08:33 AM | 37 | 0.0 | 0.0 | 53 | 81 | 69.1 | 56.1 | 30.045 | 7.26 | 0.0 | 0 | 0.00 | 0.00 | 0.00 | 0.00 |
| 05/07/26 2:09:25 AM | 32 | 0.0 | 0.0 | 53 | 81 | 69.1 | 56.1 | 30.044 | 7.26 | 0.0 | 0 | 0.00 | 0.00 | 0.00 | 0.00 |
| 05/07/26 2:10:19 AM | 34 | 0.0 | 0.0 | 53 | 81 | 69.1 | 56.1 | 30.046 | 7.26 | 0.0 | 0 | 0.00 | 0.00 | 0.00 | 0.00 |
| 05/07/26 2:11:29 AM | 38 | 0.0 | 0.0 | 53 | 81 | 69.0 | 56.1 | 30.044 | 7.26 | 0.0 | 0 | 0.00 | 0.00 | 0.00 | 0.00 |
| 05/07/26 2:12:18 AM | 36 | 0.0 | 0.0 | 53 | 81 | 69.1 | 56.1 | 30.044 | 7.26 | 0.0 | 0 | 0.00 | 0.00 | 0.00 | 0.00 |
| 05/07/26 2:13:28 AM | 37 | 0.0 | 0.0 | 53 | 81 | 69.1 | 56.1 | 30.044 | 7.26 | 0.0 | 0 | 0.00 | 0.00 | 0.00 | 0.00 |
| 05/07/26 2:14:20 AM | 38 | 0.0 | 0.0 | 53 | 81 | 69.0 | 56.1 | 30.042 | 7.26 | 0.0 | 0 | 0.00 | 0.00 | 0.00 | 0.00 |
| 05/07/26 2:15:33 AM | 38 | 0.0 | 0.0 | 53 | 81 | 69.0 | 56.1 | 30.043 | 7.26 | 0.0 | 0 | 0.00 | 0.00 | 0.00 | 0.00 |
| 05/07/26 2:16:24 AM | 34 | 0.0 | 0.0 | 53 | 81 | 69.1 | 56.1 | 30.042 | 7.26 | 0.0 | 0 | 0.00 | 0.00 | 0.00 | 0.00 |
| 05/07/26 2:17:31 AM | 36 | 0.0 | 0.0 | 53 | 81 | 69.1 | 56.1 | 30.043 | 7.26 | 0.0 | 0 | 0.00 | 0.00 | 0.00 | 0.00 |
| 05/07/26 2:18:26 AM | 38 | 0.0 | 0.0 | 53 | 81 | 69.0 | 56.1 | 30.044 | 7.26 | 0.0 | 0 | 0.00 | 0.00 | 0.00 | 0.00 |
| 05/07/26 2:19:18 AM | 31 | 0.0 | 0.0 | 53 | 81 | 69.0 | 56.1 | 30.044 | 7.26 | 0.0 | 0 | 0.00 | 0.00 | 0.00 | 0.00 |
| 05/07/26 2:20:28 AM | 36 | 0.0 | 0.0 | 53 | 81 | 69.0 | 56.1 | 30.042 | 7.26 | 0.0 | 0 | 0.00 | 0.00 | 0.00 | 0.00 |
| 05/07/26 2:21:20 AM | 38 | 0.0 | 0.0 | 53 | 81 | 69.1 | 56.0 | 30.044 | 7.26 | 0.0 | 0 | 0.00 | 0.00 | 0.00 | 0.00 |
| 05/07/26 2:22:30 AM | 34 | 0.0 | 0.0 | 53 | 81 | 69.0 | 56.0 | 30.045 | 7.26 | 0.0 | 0 | 0.00 | 0.00 | 0.00 | 0.00 |
| 05/07/26 2:23:21 AM | 38 | 0.0 | 0.0 | 53 | 81 | 69.0 | 56.0 | 30.044 | 7.26 | 0.0 | 0 | 0.00 | 0.00 | 0.00 | 0.00 |
| 05/07/26 2:24:31 AM | 38 | 0.0 | 0.0 | 53 | 81 | 69.1 | 56.0 | 30.042 | 7.26 | 0.0 | 0 | 0.00 | 0.00 | 0.00 | 0.00 |
| 05/07/26 2:25:26 AM | 37 | 0.0 | 0.0 | 53 | 81 | 69.0 | 56.0 | 30.041 | 7.26 | 0.0 | 0 | 0.00 | 0.00 | 0.00 | 0.00 |
| 05/07/26 2:26:18 AM | 38 | 0.0 | 0.0 | 53 | 81 | 69.0 | 55.9 | 30.040 | 7.26 | 0.0 | 0 | 0.00 | 0.00 | 0.00 | 0.00 |
| 05/07/26 2:27:28 AM | 38 | 0.0 | 0.0 | 53 | 81 | 69.0 | 55.8 | 30.041 | 7.26 | 0.0 | 0 | 0.00 | 0.00 | 0.00 | 0.00 |
| 05/07/26 2:28:17 AM | 37 | 0.0 | 0.0 | 53 | 81 | 69.0 | 55.8 | 30.038 | 7.26 | 0.0 | 0 | 0.00 | 0.00 | 0.00 | 0.00 |
| 05/07/26 2:29:29 AM | 36 | 0.0 | 0.0 | 53 | 81 | 69.0 | 55.8 | 30.039 | 7.26 | 0.0 | 0 | 0.00 | 0.00 | 0.00 | 0.00 |
| 05/07/26 2:30:21 AM | 36 | 0.0 | 0.0 | 53 | 81 | 69.0 | 55.8 | 30.039 | 7.26 | 0.0 | 0 | 0.00 | 0.00 | 0.00 | 0.00 |
| 05/07/26 2:31:34 AM | 31 | 0.0 | 0.0 | 53 | 81 | 69.0 | 55.7 | 30.040 | 7.26 | 0.0 | 0 | 0.00 | 0.00 | 0.00 | 0.00 |
| 05/07/26 2:32:26 AM | 36 | 0.0 | 0.0 | 53 | 81 | 69.0 | 55.7 | 30.038 | 7.26 | 0.0 | 0 | 0.00 | 0.00 | 0.00 | 0.00 |
| 05/07/26 2:33:39 AM | 30 | 0.0 | 0.0 | 53 | 81 | 69.0 | 55.7 | 30.039 | 7.26 | 0.0 | 0 | 0.00 | 0.00 | 0.00 | 0.00 |
| 05/07/26 2:34:31 AM | 37 | 0.0 | 0.0 | 53 | 81 | 68.9 | 55.7 | 30.038 | 7.26 | 0.0 | 0 | 0.00 | 0.00 | 0.00 | 0.00 |
| 05/07/26 2:35:23 AM | 36 | 0.0 | 0.0 | 53 | 81 | 68.9 | 55.7 | 30.038 | 7.26 | 0.0 | 0 | 0.00 | 0.00 | 0.00 | 0.00 |
| 05/07/26 2:36:36 AM | 34 | 0.0 | 0.0 | 53 | 82 | 68.9 | 55.6 | 30.034 | 7.26 | 0.0 | 0 | 0.00 | 0.00 | 0.00 | 0.00 |
| 05/07/26 2:37:25 AM | 38 | 0.0 | 0.0 | 53 | 82 | 68.9 | 55.6 | 30.037 | 7.26 | 0.0 | 0 | 0.00 | 0.00 | 0.00 | 0.00 |
| 05/07/26 2:38:19 AM | 37 | 0.0 | 0.0 | 53 | 82 | 68.9 | 55.6 | 30.038 | 7.26 | 0.0 | 0 | 0.00 | 0.00 | 0.00 | 0.00 |
| 05/07/26 2:39:26 AM | 38 | 0.0 | 0.0 | 53 | 82 | 68.9 | 55.6 | 30.036 | 7.26 | 0.0 | 0 | 0.00 | 0.00 | 0.00 | 0.00 |
| 05/07/26 2:40:18 AM | 38 | 0.0 | 0.0 | 53 | 82 | 69.0 | 55.6 | 30.034 | 7.26 | 0.0 | 0 | 0.00 | 0.00 | 0.00 | 0.00 |
| 05/07/26 2:41:31 AM | 36 | 0.0 | 0.0 | 53 | 82 | 68.9 | 55.5 | 30.034 | 7.26 | 0.0 | 0 | 0.00 | 0.00 | 0.00 | 0.00 |
| 05/07/26 2:42:23 AM | 38 | 0.0 | 0.0 | 53 | 82 | 68.9 | 55.5 | 30.036 | 7.26 | 0.0 | 0 | 0.00 | 0.00 | 0.00 | 0.00 |
| 05/07/26 2:43:36 AM | 38 | 0.0 | 0.0 | 53 | 82 | 68.9 | 55.5 | 30.034 | 7.26 | 0.0 | 0 | 0.00 | 0.00 | 0.00 | 0.00 |
| 05/07/26 2:44:22 AM | 36 | 0.0 | 0.0 | 53 | 82 | 68.9 | 55.5 | 30.034 | 7.26 | 0.0 | 0 | 0.00 | 0.00 | 0.00 | 0.00 |
| 05/07/26 2:45:34 AM | 30 | 0.0 | 0.0 | 53 | 82 | 68.9 | 55.5 | 30.037 | 7.26 | 0.0 | 0 | 0.00 | 0.00 | 0.00 | 0.00 |
| 05/07/26 2:46:26 AM | 37 | 0.0 | 0.0 | 53 | 82 | 68.9 | 55.4 | 30.035 | 7.26 | 0.0 | 0 | 0.00 | 0.00 | 0.00 | 0.00 |
| 05/07/26 2:47:18 AM | 38 | 0.0 | 0.0 | 53 | 82 | 68.9 | 55.4 | 30.037 | 7.26 | 0.0 | 0 | 0.00 | 0.00 | 0.00 | 0.00 |
| 05/07/26 2:48:31 AM | 38 | 0.0 | 0.0 | 53 | 82 | 68.9 | 55.4 | 30.037 | 7.26 | 0.0 | 0 | 0.00 | 0.00 | 0.00 | 0.00 |
| 05/07/26 2:49:17 AM | 34 | 0.0 | 0.0 | 53 | 82 | 68.9 | 55.4 | 30.037 | 7.26 | 0.0 | 0 | 0.00 | 0.00 | 0.00 | 0.00 |
| 05/07/26 2:50:30 AM | 36 | 0.0 | 0.0 | 53 | 82 | 68.9 | 55.4 | 30.035 | 7.26 | 0.0 | 0 | 0.00 | 0.00 | 0.00 | 0.00 |
| 05/07/26 2:51:22 AM | 38 | 0.0 | 0.0 | 53 | 82 | 68.9 | 55.3 | 30.033 | 7.26 | 0.0 | 0 | 0.00 | 0.00 | 0.00 | 0.00 |
| 05/07/26 2:52:35 AM | 38 | 0.0 | 0.0 | 53 | 82 | 68.9 | 55.3 | 30.036 | 7.26 | 0.0 | 0 | 0.00 | 0.00 | 0.00 | 0.00 |
| 05/07/26 2:53:26 AM | 36 | 0.0 | 0.0 | 53 | 82 | 68.9 | 55.3 | 30.035 | 7.26 | 0.0 | 0 | 0.00 | 0.00 | 0.00 | 0.00 |
| 05/07/26 2:54:18 AM | 40 | 0.0 | 0.0 | 53 | 82 | 68.9 | 55.3 | 30.032 | 7.26 | 0.0 | 0 | 0.00 | 0.00 | 0.00 | 0.00 |
| 05/07/26 2:55:25 AM | 38 | 0.0 | 0.0 | 53 | 82 | 68.9 | 55.2 | 30.034 | 7.26 | 0.0 | 0 | 0.00 | 0.00 | 0.00 | 0.00 |
University Police wind advisory reference
For campus closure information please call the campus Emergency Hotline at (909) 537-5999
© All rights reserved. Unauthorized duplication or distribution is prohibited
Never base important decisions on this or any weather information obtained from the Internet
California State University, San Bernardino
5500 University Parkway, San Bernardino, CA. 92407
Phone: (909) 537-5108, Email: Weather Webmaster
Last Updated: